Location: Jodlow
(50.1500°N, 16.7500°E)
Time: 05:03:05
(UTC+01:00)

XW-2B - Visible Passes

Search period start: 27 February 2024 00:00
Search period end: 08 March 2024 00:00
Orbit: 442 x 451 km, 97.5° (Epoch: 26 February)

Date Brightness Start Highest point End Pass type
(mag) Time Alt. Az. Time Alt. Az. Time Alt. Az.
27 Feb ? 19:06:38 10° WSW 19:07:37 11° W 19:08:37 10° WNW visible
28 Feb ? 18:28:25 10° SSW 18:31:20 27° W 18:34:17 10° NW visible
29 Feb ? 05:45:54 10° ENE 05:47:29 13° E 05:49:04 10° ESE visible
01 Mar ? 18:49:44 10° SW 18:51:57 16° W 18:54:11 10° NW visible
02 Mar ? 18:12:20 10° S 18:15:33 42° W 18:18:47 10° NNW visible
04 Mar ? 18:32:55 10° SSW 18:35:44 25° W 18:38:35 10° NW visible
05 Mar ? 05:49:55 10° ENE 05:51:45 14° E 05:53:34 10° ESE visible
06 Mar ? 18:53:39 10° SW 18:55:42 15° W 18:57:47 10° NW visible
07 Mar ? 18:15:49 10° S 18:18:59 38° W 18:22:11 10° NNW visible
